Ft Lauderdale, FL

1:54 AM EDT on April 25, 2017 (GMT -0400)
Fort Lauderdale-Hollywood International

Weather History for KFLL - October, 2013

Change the Weather History Date:

Tuesday, October 8, 2013

  Actual Average Record
Temperature  
Mean Temperature 83 °F 82 °F  
Max Temperature 89 °F 87 °F 91 °F (1951)
Min Temperature 77 °F 77 °F 60 °F (1913)
Degree Days  
Heating Degree Days 0 0  
Month to date heating degree days 0 0  
Since 1 July heating degree days 0 0  
Cooling Degree Days 18 17  
Month to date cooling degree days 131 137  
Year to date cooling degree days 3691 3849  
Growing Degree Days 32 (Base 50)    
Moisture  
Dew Point 74 °F    
Average Humidity 79    
Maximum Humidity 94    
Minimum Humidity 63    
Precipitation  
Precipitation 0.04 in 0.29 in 7.09 in (1991)
Month to date precipitation 0.90 2.22  
Year to date precipitation 61.67 51.88  
Snow  
Snow 0.00 in - - ()
Month to date snowfall 0.0  
Since 1 July snowfall 0.0  
Since 1 September snowfall 0.0  
Snow Depth 0.00 in    
Sea Level Pressure  
Sea Level Pressure 29.89 in    
Wind  
Wind Speed 6 mph (WSW)    
Max Wind Speed 13 mph    
Max Gust Speed 18 mph    
Visibility 9 miles    
Events Rain    
T = Trace of Precipitation, MM = Missing Value Source: NWS Daily Summary

Daily Weather History Graph

Daily Weather History Graph

Search for Another Location

Airport or City:

Trip Planner

Search our weather history database for the weather conditions in past years. The results will help you decide how hot, cold, wet, or windy it might be!

Date:

Astronomy

Oct. 08, 2013 Rise Set
Actual Time 7:16 AM EDT 6:59 PM EDT
Civil Twilight 6:53 AM EDT 7:22 PM EDT
Nautical Twilight 6:26 AM EDT 7:49 PM EDT
Astronomical Twilight 5:59 AM EDT 8:15 PM EDT
Moon 10:47 AM EDT (10/8) 9:56 PM EDT (10/8)
Length of Visible Light 12h 29m
Length of Day
11h 43m
Waxing Crescent, 16% of the Moon is Illuminated
Oct 8
Waxing Crescent
Oct 11
First Quarter
Oct 18
Full
Oct 26
Last Quarter
Nov 3
New

Hourly Weather History & Observations

Time (EDT) Temp. Heat Index Dew Point Humidity Pressure Visibility Wind Dir Wind Speed Gust Speed Precip Events Conditions
12:53 AM 77.0 °F - 73.9 °F 90% 29.87 in 10.0 mi SSW 3.5 mph - N/A   Partly Cloudy
1:53 AM 78.1 °F - 75.0 °F 90% 29.87 in 10.0 mi South 5.8 mph - N/A   Partly Cloudy
2:53 AM 77.0 °F - 75.0 °F 94% 29.87 in 10.0 mi South 4.6 mph - N/A   Partly Cloudy
3:53 AM 77.0 °F - 75.0 °F 94% 29.86 in 10.0 mi South 3.5 mph - N/A   Partly Cloudy
4:53 AM 77.0 °F - 73.9 °F 90% 29.86 in 10.0 mi SSW 3.5 mph - N/A   Partly Cloudy
5:53 AM 77.0 °F - 75.0 °F 94% 29.87 in 10.0 mi SSW 4.6 mph - N/A   Partly Cloudy
6:53 AM 77.0 °F - 75.0 °F 94% 29.88 in 10.0 mi SSW 3.5 mph - N/A   Partly Cloudy
7:53 AM 77.0 °F - 75.0 °F 94% 29.89 in 10.0 mi SSW 4.6 mph - N/A   Partly Cloudy
8:53 AM 81.0 °F 87.3 °F 75.9 °F 85% 29.91 in 10.0 mi WSW 4.6 mph - N/A   Partly Cloudy
9:53 AM 82.9 °F 90.8 °F 75.9 °F 79% 29.92 in 10.0 mi Variable 3.5 mph - N/A   Partly Cloudy
10:53 AM 81.0 °F 86.2 °F 73.9 °F 79% 29.93 in 10.0 mi WNW 8.1 mph - N/A   Overcast
11:11 AM 82.4 °F 88.2 °F 73.4 °F 74% 29.93 in 10.0 mi WNW 8.1 mph - N/A   Mostly Cloudy
11:53 AM 84.9 °F 93.3 °F 75.0 °F 72% 29.91 in 10.0 mi West 9.2 mph - 0.00 in   Scattered Clouds
12:53 PM 84.9 °F 91.4 °F 73.0 °F 67% 29.90 in 10.0 mi West 8.1 mph - N/A   Mostly Cloudy
1:53 PM 88.0 °F 95.6 °F 73.0 °F 61% 29.88 in 10.0 mi West 9.2 mph 18.4 mph N/A   Mostly Cloudy
2:53 PM 82.9 °F 90.8 °F 75.9 °F 79% 29.87 in 8.0 mi SSW 8.1 mph 17.3 mph 0.00 in Rain Light Rain
3:11 PM 82.4 °F 89.5 °F 75.2 °F 79% 29.88 in 1.5 mi WNW 10.4 mph 17.3 mph 0.00 in Rain Heavy Rain
3:16 PM 80.6 °F 85.4 °F 73.4 °F 79% 29.87 in 5.0 mi ESE 3.5 mph 17.3 mph 0.00 in Rain Rain
3:43 PM 84.2 °F 92.3 °F 75.2 °F 74% 29.87 in 10.0 mi SW 6.9 mph - N/A   Mostly Cloudy
3:53 PM 86.0 °F 96.9 °F 77.0 °F 74% 29.87 in 10.0 mi SW 6.9 mph - N/A   Mostly Cloudy
4:53 PM 87.1 °F 94.5 °F 73.0 °F 63% 29.87 in 10.0 mi SSW 9.2 mph - N/A   Scattered Clouds
5:53 PM 86.0 °F 93.0 °F 73.0 °F 65% 29.86 in 10.0 mi WSW 11.5 mph - N/A   Partly Cloudy
6:53 PM 84.9 °F 90.7 °F 72.0 °F 65% 29.88 in 10.0 mi West 5.8 mph - N/A   Scattered Clouds
7:53 PM 84.0 °F 89.0 °F 71.1 °F 65% 29.89 in 10.0 mi West 4.6 mph - N/A   Scattered Clouds
8:53 PM 82.9 °F 87.5 °F 71.1 °F 67% 29.91 in 10.0 mi West 4.6 mph - N/A   Partly Cloudy
9:53 PM 81.0 °F 84.4 °F 70.0 °F 69% 29.93 in 10.0 mi WNW 5.8 mph - N/A   Clear
10:53 PM 79.0 °F - 69.1 °F 72% 29.94 in 10.0 mi WNW 5.8 mph - N/A   Clear
11:53 PM 78.1 °F - 70.0 °F 76% 29.94 in 10.0 mi WNW 5.8 mph - N/A   Clear